Location: Newark
(15.4608°S, 41.1635°W)
Time: 23:04:36
(UTC+00:00)

N. Korean satellite - Visible Passes

Search period start: 27 January 2021 00:00
Search period end: 06 February 2021 00:00
Orbit: 452 x 502 km, 97.2° (Epoch: 27 January)

Date Brightness Start Highest point End Pass type
(mag) Time Alt. Az. Time Alt. Az. Time Alt. Az.
27 Jan 8.4 07:17:00 10° NE 07:20:04 32° ESE 07:23:11 10° SSE visible
28 Jan 9.9 06:52:09 10° E 06:53:37 12° ESE 06:55:06 10° SE visible
29 Jan 6.7 07:56:46 10° N 08:00:03 45° W 08:03:23 10° SSW visible
30 Jan 7.2 07:30:08 10° NNE 07:33:29 56° ESE 07:36:54 10° S visible
31 Jan 9.3 07:04:25 10° NE 07:06:59 20° ESE 07:09:36 10° SSE visible
01 Feb 7.4 08:10:33 10° NNW 08:13:29 26° W 08:16:28 10° SW visible
02 Feb 6.3 07:43:27 10° N 07:46:52 81° WNW 07:50:23 10° SSW visible
03 Feb 8.3 07:17:12 10° NE 07:20:20 33° ESE 07:23:31 10° SSE visible
04 Feb 9.9 06:52:14 10° ENE 06:53:51 13° ESE 06:55:30 10° SE visible
05 Feb 6.8 07:56:56 10° N 08:00:14 44° W 08:03:38 10° SSW visible
